| time (UTC) | temp F | wind direction | speed knots | gust knots | rain 1hr in | rain 24hr in | rain mn in | humidity % | barometer mb |
| 20260503232412 | 33 | 44 | 31.3 | 39.1 | 0.00 | 0.00 | 0.00 | 81 | 811.0 |
| 20260503232305 | 33 | 43 | 37.4 | 42.6 | 0.00 | 0.00 | 0.00 | 83 | 810.5 |
| 20260503232152 | 33 | 52 | 30.4 | 37.4 | 0.00 | 0.00 | 0.00 | 80 | 810.9 |
| 20260503232042 | 33 | 52 | 30.4 | 37.4 | 0.00 | 0.00 | 0.00 | 80 | 811.0 |
| 20260503231932 | 33 | 56 | 30.4 | 35.6 | 0.00 | 0.00 | 0.00 | 80 | 810.9 |
| 20260503231823 | 33 | 48 | 30.4 | 35.6 | 0.00 | 0.00 | 0.00 | 80 | 810.9 |
| 20260503231712 | 33 | 51 | 31.3 | 36.5 | 0.00 | 0.00 | 0.00 | 79 | 811.0 |
| 20260503231602 | 33 | 44 | 33.0 | 40.8 | 0.00 | 0.00 | 0.00 | 81 | 810.9 |
| 20260503231452 | 33 | 45 | 33.9 | 40.0 | 0.00 | 0.00 | 0.00 | 82 | 810.9 |
| 20260503231342 | 33 | 45 | 34.8 | 40.0 | 0.00 | 0.00 | 0.00 | 82 | 810.9 |
| 20260503231013 | 33 | 52 | 31.3 | 36.5 | 0.00 | 0.00 | 0.00 | 79 | 810.7 |
| 20260503230902 | 33 | 51 | 34.8 | 41.7 | 0.00 | 0.00 | 0.00 | 79 | 810.7 |
| 20260503230642 | 33 | 49 | 31.3 | 35.6 | 0.00 | 0.00 | 0.00 | 79 | 811.1 |
| 20260503230533 | 33 | 49 | 30.4 | 38.2 | 0.00 | 0.00 | 0.00 | 79 | 811.0 |
| 20260503230423 | 33 | 44 | 33.0 | 38.2 | 0.00 | 0.00 | 0.00 | 80 | 810.9 |
| 20260503230312 | 33 | 53 | 33.0 | 38.2 | 0.00 | 0.00 | 0.00 | 78 | 810.7 |
| 20260503230052 | 33 | 43 | 30.4 | 37.4 | 0.00 | 0.00 | 0.00 | 79 | 811.1 |
| 20260503225942 | 33 | 42 | 34.8 | 40.8 | 0.00 | 0.00 | 0.00 | 80 | 810.6 |
| 20260503225832 | 33 | 51 | 30.4 | 38.2 | 0.00 | 0.00 | 0.00 | 80 | 810.9 |
| 20260503225722 | 33 | 56 | 32.2 | 39.1 | 0.00 | 0.00 | 0.00 | 78 | 810.7 |
| 20260503225612 | 33 | 52 | 32.2 | 39.1 | 0.00 | 0.00 | 0.00 | 79 | 810.7 |
| 20260503225503 | 33 | 56 | 34.8 | 41.7 | 0.00 | 0.00 | 0.00 | 79 | 810.7 |
| 20260503225352 | 33 | 46 | 32.2 | 39.1 | 0.00 | 0.00 | 0.00 | 79 | 811.0 |
| 20260503225242 | 33 | 46 | 36.5 | 41.7 | 0.00 | 0.00 | 0.00 | 81 | 810.9 |
| 20260503225132 | 33 | 53 | 37.4 | 44.3 | 0.00 | 0.00 | 0.00 | 80 | 810.9 |
| 20260503225022 | 33 | 63 | 28.7 | 39.1 | 0.00 | 0.00 | 0.00 | 80 | 810.9 |
| 20260503224912 | 33 | 51 | 34.8 | 43.4 | 0.00 | 0.00 | 0.00 | 80 | 810.6 |
| 20260503224802 | 33 | 48 | 33.0 | 41.7 | 0.00 | 0.00 | 0.00 | 78 | 810.9 |
| 20260503224652 | 33 | 48 | 35.6 | 42.6 | 0.00 | 0.00 | 0.00 | 78 | 810.7 |
| 20260503224542 | 33 | 40 | 32.2 | 41.7 | 0.00 | 0.00 | 0.00 | 80 | 810.6 |
| 20260503224212 | 33 | 48 | 30.4 | 38.2 | 0.00 | 0.00 | 0.00 | 80 | 811.0 |
| 20260503224102 | 33 | 45 | 34.8 | 44.3 | 0.00 | 0.00 | 0.00 | 80 | 810.5 |
| 20260503223952 | 33 | 41 | 34.8 | 44.3 | 0.00 | 0.00 | 0.00 | 77 | 810.9 |
| 20260503223842 | 33 | 43 | 33.0 | 40.0 | 0.00 | 0.00 | 0.00 | 77 | 810.9 |
| 20260503223732 | 33 | 35 | 32.2 | 46.1 | 0.00 | 0.00 | 0.00 | 77 | 811.3 |
| 20260503223512 | 33 | 40 | 30.4 | 38.2 | 0.00 | 0.00 | 0.00 | 77 | 811.0 |
| 20260503223402 | 33 | 42 | 32.2 | 40.0 | 0.00 | 0.00 | 0.00 | 76 | 811.4 |
| 20260503223252 | 33 | 42 | 27.8 | 37.4 | 0.00 | 0.00 | 0.00 | 76 | 811.4 |
| 20260503223142 | 33 | 37 | 28.7 | 38.2 | 0.00 | 0.00 | 0.00 | 76 | 811.3 |
| 20260503223032 | 33 | 40 | 32.2 | 39.1 | 0.00 | 0.00 | 0.00 | 76 | 810.9 |
| 20260503222922 | 33 | 43 | 34.8 | 41.7 | 0.00 | 0.00 | 0.00 | 76 | 810.9 |
| 20260503222812 | 33 | 41 | 33.0 | 42.6 | 0.00 | 0.00 | 0.00 | 76 | 811.3 |
| 20260503222702 | 33 | 37 | 28.7 | 33.9 | 0.00 | 0.00 | 0.00 | 76 | 811.1 |
| 20260503222552 | 33 | 40 | 30.4 | 38.2 | 0.00 | 0.00 | 0.00 | 76 | 811.3 |
| 20260503222442 | 32 | 41 | 33.0 | 38.2 | 0.00 | 0.00 | 0.00 | 76 | 811.3 |
| 20260503222332 | 32 | 40 | 30.4 | 40.0 | 0.00 | 0.00 | 0.00 | 75 | 811.0 |
| 20260503222222 | 32 | 39 | 31.3 | 40.0 | 0.00 | 0.00 | 0.00 | 75 | 811.3 |
| 20260503222112 | 32 | 40 | 29.5 | 36.5 | 0.00 | 0.00 | 0.00 | 75 | 811.3 |
| 20260503221852 | 32 | 37 | 27.8 | 36.5 | 0.00 | 0.00 | 0.00 | 74 | 811.4 |
| 20260503221742 | 32 | 42 | 31.3 | 40.8 | 0.00 | 0.00 | 0.00 | 74 | 811.3 |
| 20260503221632 | 32 | 40 | 31.3 | 40.0 | 0.00 | 0.00 | 0.00 | 74 | 811.3 |
| 20260503221522 | 32 | 39 | 31.3 | 38.2 | 0.00 | 0.00 | 0.00 | 74 | 811.0 |
| 20260503221412 | 32 | 41 | 30.4 | 42.6 | 0.00 | 0.00 | 0.00 | 74 | 811.1 |
| 20260503221302 | 32 | 42 | 30.4 | 38.2 | 0.00 | 0.00 | 0.00 | 74 | 811.3 |
| 20260503221042 | 32 | 33 | 26.1 | 33.9 | 0.00 | 0.00 | 0.00 | 74 | 811.3 |
| 20260503220932 | 32 | 38 | 31.3 | 40.0 | 0.00 | 0.00 | 0.00 | 73 | 811.3 |
| 20260503220822 | 32 | 38 | 29.5 | 38.2 | 0.00 | 0.00 | 0.00 | 73 | 811.3 |
| 20260503220602 | 32 | 38 | 26.9 | 33.0 | 0.00 | 0.00 | 0.00 | 74 | 811.3 |
| 20260503220342 | 32 | 39 | 29.5 | 36.5 | 0.00 | 0.00 | 0.00 | 73 | 811.4 |
| 20260503220232 | 32 | 36 | 27.8 | 36.5 | 0.00 | 0.00 | 0.00 | 73 | 811.3 |
| 20260503220012 | 32 | 37 | 28.7 | 38.2 | 0.00 | 0.00 | 0.00 | 73 | 811.7 |
| 20260503215902 | 32 | 37 | 28.7 | 35.6 | 0.00 | 0.00 | 0.00 | 73 | 811.3 |
| 20260503215752 | 32 | 37 | 29.5 | 38.2 | 0.00 | 0.00 | 0.00 | 73 | 811.3 |
| 20260503215642 | 32 | 37 | 28.7 | 39.1 | 0.00 | 0.00 | 0.00 | 73 | 811.3 |
| 20260503215532 | 32 | 37 | 27.8 | 36.5 | 0.00 | 0.00 | 0.00 | 74 | 811.3 |
| 20260503215312 | 32 | 35 | 28.7 | 35.6 | 0.00 | 0.00 | 0.00 | 74 | 811.7 |
| 20260503215202 | 32 | 35 | 27.8 | 39.1 | 0.00 | 0.00 | 0.00 | 74 | 811.4 |
| 20260503215052 | 32 | 36 | 30.4 | 40.8 | 0.00 | 0.00 | 0.00 | 74 | 811.3 |
| 20260503214942 | 32 | 38 | 30.4 | 39.1 | 0.00 | 0.00 | 0.00 | 74 | 811.3 |
| 20260503214722 | 32 | 42 | 30.4 | 37.4 | 0.00 | 0.00 | 0.00 | 74 | 811.7 |
| 20260503214612 | 32 | 39 | 26.9 | 34.8 | 0.00 | 0.00 | 0.00 | 74 | 811.7 |
| 20260503214502 | 32 | 41 | 26.9 | 34.8 | 0.00 | 0.00 | 0.00 | 74 | 811.4 |
| 20260503214242 | 32 | 39 | 28.7 | 33.9 | 0.00 | 0.00 | 0.00 | 73 | 811.8 |
| 20260503214132 | 32 | 41 | 30.4 | 36.5 | 0.00 | 0.00 | 0.00 | 74 | 811.5 |
| 20260503214022 | 32 | 40 | 31.3 | 38.2 | 0.00 | 0.00 | 0.00 | 73 | 811.7 |
| 20260503213912 | 32 | 40 | 32.2 | 36.5 | 0.00 | 0.00 | 0.00 | 74 | 811.7 |
| 20260503213802 | 32 | 41 | 31.3 | 36.5 | 0.00 | 0.00 | 0.00 | 74 | 811.5 |
| 20260503213652 | 32 | 40 | 31.3 | 35.6 | 0.00 | 0.00 | 0.00 | 74 | 811.7 |
| 20260503213542 | 32 | 40 | 30.4 | 38.2 | 0.00 | 0.00 | 0.00 | 73 | 811.7 |
| 20260503213432 | 32 | 42 | 31.3 | 34.8 | 0.00 | 0.00 | 0.00 | 73 | 811.5 |
| 20260503213322 | 31 | 43 | 30.4 | 33.9 | 0.00 | 0.00 | 0.00 | 74 | 811.7 |
| 20260503213212 | 31 | 41 | 30.4 | 34.8 | 0.00 | 0.00 | 0.00 | 74 | 811.7 |
| 20260503213102 | 31 | 45 | 26.9 | 32.2 | 0.00 | 0.00 | 0.00 | 73 | 811.7 |
| 20260503212952 | 31 | 43 | 29.5 | 34.8 | 0.00 | 0.00 | 0.00 | 73 | 811.7 |
| 20260503212842 | 31 | 44 | 29.5 | 36.5 | 0.00 | 0.00 | 0.00 | 73 | 811.7 |
| 20260503212732 | 31 | 44 | 30.4 | 34.8 | 0.00 | 0.00 | 0.00 | 73 | 811.5 |
| 20260503212622 | 31 | 43 | 30.4 | 34.8 | 0.00 | 0.00 | 0.00 | 73 | 811.5 |
| 20260503212512 | 31 | 44 | 29.5 | 34.8 | 0.00 | 0.00 | 0.00 | 73 | 811.5 |
| 20260503212402 | 31 | 42 | 31.3 | 35.6 | 0.00 | 0.00 | 0.00 | 73 | 811.3 |
| 20260503212252 | 31 | 43 | 32.2 | 36.5 | 0.00 | 0.00 | 0.00 | 73 | 811.4 |
| 20260503212142 | 31 | 45 | 28.7 | 33.9 | 0.00 | 0.00 | 0.00 | 72 | 811.7 |
| 20260503212032 | 31 | 44 | 32.2 | 35.6 | 0.00 | 0.00 | 0.00 | 73 | 811.5 |
| 20260503211922 | 31 | 42 | 32.2 | 36.5 | 0.00 | 0.00 | 0.00 | 73 | 811.5 |
| 20260503211812 | 31 | 46 | 28.7 | 35.6 | 0.00 | 0.00 | 0.00 | 72 | 811.8 |
| 20260503211552 | 31 | 50 | 28.7 | 34.8 | 0.00 | 0.00 | 0.00 | 72 | 811.8 |
| 20260503211442 | 31 | 48 | 27.8 | 32.2 | 0.00 | 0.00 | 0.00 | 72 | 811.8 |
| 20260503211332 | 31 | 50 | 26.9 | 32.2 | 0.00 | 0.00 | 0.00 | 72 | 811.8 |
| 20260503211112 | 31 | 45 | 26.9 | 32.2 | 0.00 | 0.00 | 0.00 | 71 | 812.1 |
| 20260503211002 | 31 | 45 | 30.4 | 35.6 | 0.00 | 0.00 | 0.00 | 72 | 811.7 |
| 20260503210852 | 31 | 44 | 30.4 | 34.8 | 0.00 | 0.00 | 0.00 | 72 | 811.7 |
| 20260503210742 | 31 | 46 | 28.7 | 34.8 | 0.00 | 0.00 | 0.00 | 71 | 811.8 |
| 20260503210632 | 31 | 46 | 28.7 | 36.5 | 0.00 | 0.00 | 0.00 | 71 | 811.8 |
| 20260503210522 | 31 | 44 | 29.5 | 34.8 | 0.00 | 0.00 | 0.00 | 70 | 811.8 |
| 20260503210412 | 31 | 44 | 27.8 | 33.0 | 0.00 | 0.00 | 0.00 | 71 | 811.7 |
| 20260503210302 | 31 | 41 | 32.2 | 35.6 | 0.00 | 0.00 | 0.00 | 71 | 811.7 |
| 20260503210152 | 31 | 41 | 32.2 | 38.2 | 0.00 | 0.00 | 0.00 | 72 | 811.7 |
| 20260503205932 | 31 | 44 | 27.8 | 32.2 | 0.00 | 0.00 | 0.00 | 71 | 811.8 |
| 20260503205822 | 31 | 42 | 27.8 | 32.2 | 0.00 | 0.00 | 0.00 | 71 | 811.8 |
| 20260503205712 | 31 | 45 | 26.1 | 32.2 | 0.00 | 0.00 | 0.00 | 71 | 811.9 |
| 20260503205602 | 31 | 42 | 28.7 | 34.8 | 0.00 | 0.00 | 0.00 | 71 | 811.8 |
| 20260503205452 | 31 | 40 | 28.7 | 34.8 | 0.00 | 0.00 | 0.00 | 70 | 811.8 |
| 20260503205342 | 31 | 42 | 28.7 | 33.9 | 0.00 | 0.00 | 0.00 | 69 | 811.7 |
| 20260503205232 | 31 | 40 | 27.8 | 33.0 | 0.00 | 0.00 | 0.00 | 70 | 811.8 |
| 20260503205012 | 31 | 43 | 28.7 | 34.8 | 0.00 | 0.00 | 0.00 | 69 | 811.8 |
| 20260503204902 | 31 | 44 | 29.5 | 34.8 | 0.00 | 0.00 | 0.00 | 69 | 811.8 |
| 20260503204642 | 31 | 42 | 28.7 | 34.8 | 0.00 | 0.00 | 0.00 | 69 | 812.1 |
| 20260503204532 | 31 | 42 | 28.7 | 35.6 | 0.00 | 0.00 | 0.00 | 68 | 812.1 |
| 20260503204422 | 31 | 42 | 29.5 | 37.4 | 0.00 | 0.00 | 0.00 | 69 | 811.9 |
| 20260503204312 | 31 | 40 | 27.8 | 33.9 | 0.00 | 0.00 | 0.00 | 68 | 812.1 |
| 20260503204202 | 31 | 40 | 26.9 | 33.9 | 0.00 | 0.00 | 0.00 | 68 | 811.8 |
| 20260503204052 | 31 | 40 | 27.8 | 36.5 | 0.00 | 0.00 | 0.00 | 68 | 812.1 |
| 20260503203942 | 31 | 38 | 26.9 | 33.0 | 0.00 | 0.00 | 0.00 | 68 | 812.1 |
| 20260503203832 | 31 | 39 | 27.8 | 33.0 | 0.00 | 0.00 | 0.00 | 69 | 812.1 |
| 20260503203722 | 31 | 42 | 28.7 | 33.0 | 0.00 | 0.00 | 0.00 | 68 | 811.8 |
| 20260503203612 | 31 | 33 | 24.3 | 31.3 | 0.00 | 0.00 | 0.00 | 68 | 812.1 |
| 20260503203352 | 31 | 33 | 23.5 | 31.3 | 0.00 | 0.00 | 0.00 | 66 | 812.1 |
| 20260503203242 | 31 | 31 | 24.3 | 32.2 | 0.00 | 0.00 | 0.00 | 67 | 811.8 |
| 20260503203132 | 31 | 33 | 25.2 | 33.0 | 0.00 | 0.00 | 0.00 | 67 | 811.9 |
| 20260503202912 | 32 | 25 | 20.9 | 29.5 | 0.00 | 0.00 | 0.00 | 66 | 812.1 |
| 20260503202802 | 32 | 26 | 21.7 | 34.8 | 0.00 | 0.00 | 0.00 | 66 | 812.1 |
| 20260503202652 | 32 | 26 | 20.0 | 32.2 | 0.00 | 0.00 | 0.00 | 66 | 812.1 |
| 20260503202432 | 31 | 23 | 20.9 | 36.5 | 0.00 | 0.00 | 0.00 | 65 | 812.1 |
| 20260503202322 | 31 | 21 | 20.0 | 32.2 | 0.00 | 0.00 | 0.00 | 65 | 812.1 |
| 20260503202212 | 31 | 23 | 20.0 | 31.3 | 0.00 | 0.00 | 0.00 | 65 | 812.1 |
| 20260503202102 | 31 | 27 | 20.9 | 29.5 | 0.00 | 0.00 | 0.00 | 65 | 812.2 |
| 20260503201952 | 31 | 22 | 20.0 | 36.5 | 0.00 | 0.00 | 0.00 | 65 | 812.2 |
| 20260503201842 | 31 | 24 | 22.6 | 33.0 | 0.00 | 0.00 | 0.00 | 66 | 812.1 |
| 20260503201622 | 31 | 16 | 20.0 | 32.2 | 0.00 | 0.00 | 0.00 | 66 | 812.2 |
| 20260503201512 | 31 | 14 | 17.4 | 32.2 | 0.00 | 0.00 | 0.00 | 66 | 812.1 |
| 20260503201252 | 31 | 14 | 20.9 | 28.7 | 0.00 | 0.00 | 0.00 | 66 | 812.2 |
| 20260503201142 | 31 | 18 | 19.1 | 28.7 | 0.00 | 0.00 | 0.00 | 66 | 812.2 |
| 20260503201032 | 31 | 15 | 18.2 | 29.5 | 0.00 | 0.00 | 0.00 | 65 | 812.3 |
| 20260503200922 | 31 | 14 | 18.2 | 28.7 | 0.00 | 0.00 | 0.00 | 66 | 812.2 |
| 20260503200812 | 31 | 16 | 18.2 | 29.5 | 0.00 | 0.00 | 0.00 | 66 | 812.2 |
| 20260503200702 | 32 | 12 | 21.7 | 27.8 | 0.00 | 0.00 | 0.00 | 66 | 812.3 |
| 20260503200552 | 32 | 14 | 21.7 | 28.7 | 0.00 | 0.00 | 0.00 | 66 | 812.2 |
| 20260503200442 | 32 | 16 | 20.9 | 29.5 | 0.00 | 0.00 | 0.00 | 66 | 812.2 |
| 20260503200332 | 32 | 14 | 19.1 | 27.8 | 0.00 | 0.00 | 0.00 | 66 | 812.3 |
| 20260503200222 | 32 | 12 | 20.9 | 27.8 | 0.00 | 0.00 | 0.00 | 65 | 812.2 |
| 20260503200002 | 32 | 12 | 20.0 | 30.4 | 0.00 | 0.00 | 0.00 | 65 | 812.2 |
| 20260503195852 | 31 | 11 | 16.5 | 27.8 | 0.00 | 0.00 | 0.00 | 66 | 812.3 |
| 20260503195742 | 31 | 12 | 18.2 | 26.9 | 0.00 | 0.00 | 0.00 | 66 | 812.6 |
| 20260503195632 | 32 | 13 | 16.5 | 26.1 | 0.00 | 0.00 | 0.00 | 66 | 812.3 |
| 20260503195522 | 32 | 12 | 17.4 | 26.1 | 0.00 | 0.00 | 0.00 | 65 | 812.5 |
| 20260503195412 | 32 | 10 | 19.1 | 26.1 | 0.00 | 0.00 | 0.00 | 65 | 812.5 |
| 20260503195304 | 32 | 13 | 18.2 | 26.9 | 0.00 | 0.00 | 0.00 | 64 | 812.3 |
| 20260503195152 | 32 | 12 | 21.7 | 27.8 | 0.00 | 0.00 | 0.00 | 64 | 812.5 |
| 20260503195042 | 32 | 10 | 20.0 | 26.9 | 0.00 | 0.00 | 0.00 | 64 | 812.6 |
| 20260503194932 | 32 | 10 | 20.0 | 25.2 | 0.00 | 0.00 | 0.00 | 64 | 812.5 |
| 20260503194712 | 32 | 16 | 19.1 | 26.9 | 0.00 | 0.00 | 0.00 | 64 | 812.6 |
| 20260503194602 | 32 | 24 | 15.6 | 25.2 | 0.00 | 0.00 | 0.00 | 64 | 812.6 |
| 20260503194452 | 32 | 19 | 16.5 | 26.9 | 0.00 | 0.00 | 0.00 | 65 | 812.6 |
| 20260503194342 | 32 | 22 | 16.5 | 23.5 | 0.00 | 0.00 | 0.00 | 65 | 812.6 |
| 20260503194232 | 32 | 21 | 13.9 | 22.6 | 0.00 | 0.00 | 0.00 | 65 | 812.6 |
| 20260503194122 | 32 | 9 | 17.4 | 23.5 | 0.00 | 0.00 | 0.00 | 65 | 812.6 |
| 20260503194012 | 32 | 8 | 20.0 | 24.3 | 0.00 | 0.00 | 0.00 | 65 | 812.6 |
| 20260503193902 | 32 | 10 | 18.2 | 23.5 | 0.00 | 0.00 | 0.00 | 65 | 812.6 |
| 20260503193752 | 32 | 10 | 18.2 | 23.5 | 0.00 | 0.00 | 0.00 | 65 | 812.6 |
| 20260503193642 | 32 | 9 | 19.1 | 23.5 | 0.00 | 0.00 | 0.00 | 66 | 812.6 |
| 20260503193532 | 32 | 9 | 20.0 | 26.1 | 0.00 | 0.00 | 0.00 | 66 | 812.6 |
| 20260503193422 | 32 | 12 | 19.1 | 25.2 | 0.00 | 0.00 | 0.00 | 66 | 812.6 |
| 20260503193312 | 32 | 12 | 15.6 | 22.6 | 0.00 | 0.00 | 0.00 | 66 | 812.7 |
| 20260503193202 | 32 | 17 | 15.6 | 21.7 | 0.00 | 0.00 | 0.00 | 66 | 812.7 |
| 20260503193052 | 32 | 14 | 15.6 | 23.5 | 0.00 | 0.00 | 0.00 | 66 | 812.7 |
| 20260503192942 | 32 | 13 | 15.6 | 23.5 | 0.00 | 0.00 | 0.00 | 66 | 813.0 |
| 20260503192832 | 32 | 10 | 17.4 | 21.7 | 0.00 | 0.00 | 0.00 | 66 | 812.7 |
| 20260503192722 | 32 | 11 | 16.5 | 25.2 | 0.00 | 0.00 | 0.00 | 66 | 812.9 |
| 20260503192612 | 32 | 11 | 16.5 | 23.5 | 0.00 | 0.00 | 0.00 | 66 | 812.9 |
| 20260503192502 | 32 | 11 | 16.5 | 23.5 | 0.00 | 0.00 | 0.00 | 66 | 812.9 |
| 20260503192242 | 32 | 8 | 17.4 | 21.7 | 0.00 | 0.00 | 0.00 | 65 | 812.9 |
| 20260503192132 | 32 | 9 | 17.4 | 22.6 | 0.00 | 0.00 | 0.00 | 66 | 812.9 |
| 20260503192022 | 32 | 5 | 17.4 | 22.6 | 0.00 | 0.00 | 0.00 | 66 | 812.9 |
| 20260503191912 | 32 | 10 | 16.5 | 21.7 | 0.00 | 0.00 | 0.00 | 65 | 812.9 |
| 20260503191802 | 32 | 12 | 16.5 | 20.9 | 0.00 | 0.00 | 0.00 | 66 | 812.9 |
| 20260503191652 | 32 | 5 | 15.6 | 20.0 | 0.00 | 0.00 | 0.00 | 66 | 813.0 |
| 20260503191432 | 32 | 5 | 16.5 | 20.0 | 0.00 | 0.00 | 0.00 | 66 | 812.9 |
| 20260503191321 | 32 | 6 | 16.5 | 20.0 | 0.00 | 0.00 | 0.00 | 66 | 812.9 |
| 20260503191212 | 32 | 4 | 17.4 | 21.7 | 0.00 | 0.00 | 0.00 | 66 | 812.7 |
| 20260503190952 | 32 | 8 | 16.5 | 20.9 | 0.00 | 0.00 | 0.00 | 66 | 813.0 |
| 20260503190842 | 32 | 14 | 16.5 | 20.0 | 0.00 | 0.00 | 0.00 | 67 | 813.0 |
| 20260503190731 | 32 | 11 | 16.5 | 20.9 | 0.00 | 0.00 | 0.00 | 67 | 813.0 |
| 20260503190621 | 32 | 4 | 18.2 | 21.7 | 0.00 | 0.00 | 0.00 | 67 | 812.9 |
| 20260503190512 | 32 | 6 | 14.8 | 18.2 | 0.00 | 0.00 | 0.00 | 67 | 813.0 |
| 20260503190142 | 32 | 9 | 19.1 | 23.5 | 0.00 | 0.00 | 0.00 | 66 | 812.7 |
| 20260503190032 | 32 | 8 | 16.5 | 21.7 | 0.00 | 0.00 | 0.00 | 66 | 813.0 |
| 20260503185922 | 32 | 7 | 14.8 | 17.4 | 0.00 | 0.00 | 0.00 | 66 | 813.0 |
| 20260503185702 | 32 | 9 | 17.4 | 20.9 | 0.00 | 0.00 | 0.00 | 67 | 813.0 |
| 20260503185442 | 33 | 9 | 15.6 | 21.7 | 0.00 | 0.00 | 0.00 | 66 | 812.9 |
| 20260503185332 | 33 | 1 | 16.5 | 21.7 | 0.00 | 0.00 | 0.00 | 66 | 813.0 |
| 20260503185222 | 33 | 8 | 20.0 | 24.3 | 0.00 | 0.00 | 0.00 | 66 | 813.0 |
| 20260503185002 | 33 | 7 | 16.5 | 22.6 | 0.00 | 0.00 | 0.00 | 65 | 813.0 |
| 20260503184852 | 33 | 0 | 14.8 | 19.1 | 0.00 | 0.00 | 0.00 | 65 | 813.0 |
| 20260503184522 | 33 | 7 | 18.2 | 22.6 | 0.00 | 0.00 | 0.00 | 66 | 812.9 |
| 20260503184412 | 33 | 8 | 20.0 | 27.8 | 0.00 | 0.00 | 0.00 | 66 | 812.7 |
| 20260503184301 | 32 | 11 | 17.4 | 23.5 | 0.00 | 0.00 | 0.00 | 66 | 812.9 |
| 20260503183932 | 32 | 8 | 15.6 | 19.1 | 0.00 | 0.00 | 0.00 | 64 | 813.0 |
| 20260503183821 | 33 | 6 | 15.6 | 20.0 | 0.00 | 0.00 | 0.00 | 64 | 813.0 |
| 20260503183712 | 33 | 2 | 13.9 | 18.2 | 0.00 | 0.00 | 0.00 | 64 | 813.0 |
| 20260503183602 | 32 | 2 | 17.4 | 21.7 | 0.00 | 0.00 | 0.00 | 64 | 812.9 |
| 20260503183452 | 32 | 358 | 13.9 | 20.0 | 0.00 | 0.00 | 0.00 | 64 | 813.0 |
| 20260503183342 | 32 | 0 | 15.6 | 20.0 | 0.00 | 0.00 | 0.00 | 64 | 813.0 |
| 20260503183122 | 32 | 0 | 14.8 | 18.2 | 0.00 | 0.00 | 0.00 | 63 | 813.0 |
| 20260503183012 | 32 | 356 | 13.9 | 17.4 | 0.00 | 0.00 | 0.00 | 63 | 813.0 |
| 20260503182752 | 32 | 358 | 13.0 | 17.4 | 0.00 | 0.00 | 0.00 | 63 | 813.0 |
| 20260503182642 | 32 | 358 | 13.0 | 17.4 | 0.00 | 0.00 | 0.00 | 63 | 813.0 |
| 20260503182532 | 32 | 3 | 13.0 | 15.6 | 0.00 | 0.00 | 0.00 | 63 | 813.0 |
| 20260503182421 | 32 | 0 | 13.0 | 15.6 | 0.00 | 0.00 | 0.00 | 63 | 813.0 |
| 20260503182202 | 32 | 0 | 13.9 | 16.5 | 0.00 | 0.00 | 0.00 | 64 | 813.0 |
| 20260503182052 | 32 | 0 | 12.2 | 14.8 | 0.00 | 0.00 | 0.00 | 64 | 813.0 |
| 20260503181942 | 32 | 1 | 13.0 | 18.2 | 0.00 | 0.00 | 0.00 | 63 | 813.0 |
| 20260503181721 | 32 | 3 | 13.0 | 18.2 | 0.00 | 0.00 | 0.00 | 63 | 813.0 |
| 20260503181612 | 32 | 5 | 12.2 | 14.8 | 0.00 | 0.00 | 0.00 | 63 | 813.0 |
| 20260503181502 | 32 | 3 | 12.2 | 14.8 | 0.00 | 0.00 | 0.00 | 63 | 813.0 |
| 20260503181352 | 32 | 2 | 12.2 | 16.5 | 0.00 | 0.00 | 0.00 | 63 | 813.0 |
| 20260503181241 | 32 | 2 | 13.0 | 16.5 | 0.00 | 0.00 | 0.00 | 63 | 813.0 |
| 20260503181132 | 32 | 356 | 12.2 | 14.8 | 0.00 | 0.00 | 0.00 | 63 | 813.1 |
| 20260503181022 | 32 | 0 | 13.0 | 16.5 | 0.00 | 0.00 | 0.00 | 63 | 813.0 |
| 20260503180912 | 32 | 2 | 13.9 | 16.5 | 0.00 | 0.00 | 0.00 | 62 | 813.0 |
| 20260503180802 | 32 | 2 | 13.9 | 16.5 | 0.00 | 0.00 | 0.00 | 62 | 813.0 |
| 20260503180652 | 32 | 4 | 15.6 | 19.1 | 0.00 | 0.00 | 0.00 | 62 | 813.0 |
| 20260503180542 | 32 | 4 | 15.6 | 18.2 | 0.00 | 0.00 | 0.00 | 62 | 813.0 |
| 20260503180432 | 32 | 3 | 16.5 | 19.1 | 0.00 | 0.00 | 0.00 | 63 | 813.0 |
| 20260503180322 | 32 | 2 | 14.8 | 19.1 | 0.00 | 0.00 | 0.00 | 63 | 813.0 |
| 20260503180212 | 32 | 4 | 13.9 | 16.5 | 0.00 | 0.00 | 0.00 | 63 | 813.0 |
| 20260503175952 | 32 | 3 | 14.8 | 18.2 | 0.00 | 0.00 | 0.00 | 63 | 813.0 |
| 20260503175842 | 32 | 8 | 13.9 | 18.2 | 0.00 | 0.00 | 0.00 | 64 | 813.0 |
| 20260503175732 | 32 | 6 | 15.6 | 18.2 | 0.00 | 0.00 | 0.00 | 64 | 813.0 |
| 20260503175622 | 32 | 8 | 15.6 | 19.1 | 0.00 | 0.00 | 0.00 | 64 | 813.0 |
| 20260503175512 | 32 | 12 | 15.6 | 20.0 | 0.00 | 0.00 | 0.00 | 64 | 812.9 |
| 20260503175402 | 32 | 13 | 16.5 | 20.0 | 0.00 | 0.00 | 0.00 | 64 | 812.9 |
| 20260503175252 | 32 | 12 | 16.5 | 20.0 | 0.00 | 0.00 | 0.00 | 64 | 812.9 |
| 20260503175032 | 32 | 10 | 15.6 | 19.1 | 0.00 | 0.00 | 0.00 | 64 | 812.9 |
| 20260503174922 | 32 | 11 | 14.8 | 18.2 | 0.00 | 0.00 | 0.00 | 64 | 813.0 |
| 20260503174812 | 32 | 10 | 15.6 | 19.1 | 0.00 | 0.00 | 0.00 | 64 | 813.0 |
| 20260503174702 | 32 | 13 | 17.4 | 20.9 | 0.00 | 0.00 | 0.00 | 64 | 812.9 |
| 20260503174552 | 32 | 12 | 15.6 | 20.0 | 0.00 | 0.00 | 0.00 | 64 | 812.9 |
| 20260503174332 | 32 | 10 | 17.4 | 20.9 | 0.00 | 0.00 | 0.00 | 65 | 812.9 |
| 20260503174222 | 32 | 13 | 13.9 | 19.1 | 0.00 | 0.00 | 0.00 | 64 | 812.9 |
| 20260503174112 | 32 | 11 | 13.0 | 16.5 | 0.00 | 0.00 | 0.00 | 64 | 813.0 |
| 20260503174002 | 32 | 9 | 16.5 | 20.0 | 0.00 | 0.00 | 0.00 | 64 | 812.9 |
| 20260503173852 | 32 | 11 | 15.6 | 20.0 | 0.00 | 0.00 | 0.00 | 64 | 813.0 |
| 20260503173632 | 32 | 9 | 16.5 | 20.0 | 0.00 | 0.00 | 0.00 | 64 | 812.9 |
| 20260503173412 | 32 | 13 | 14.8 | 18.2 | 0.00 | 0.00 | 0.00 | 64 | 812.9 |
| 20260503173302 | 32 | 11 | 13.9 | 17.4 | 0.00 | 0.00 | 0.00 | 64 | 813.0 |
| 20260503173152 | 32 | 11 | 16.5 | 20.0 | 0.00 | 0.00 | 0.00 | 64 | 812.9 |
| 20260503173042 | 32 | 13 | 13.9 | 17.4 | 0.00 | 0.00 | 0.00 | 64 | 813.0 |
| 20260503172932 | 32 | 11 | 16.5 | 20.0 | 0.00 | 0.00 | 0.00 | 64 | 812.9 |
| 20260503172712 | 32 | 13 | 16.5 | 21.7 | 0.00 | 0.00 | 0.00 | 64 | 812.9 |
| 20260503172602 | 32 | 15 | 14.8 | 20.0 | 0.00 | 0.00 | 0.00 | 64 | 812.9 |
| 20260503172452 | 32 | 15 | 15.6 | 20.0 | 0.00 | 0.00 | 0.00 | 63 | 812.9 |
| 20260503172342 | 32 | 8 | 13.0 | 17.4 | 0.00 | 0.00 | 0.00 | 64 | 812.9 |
| 20260503172232 | 32 | 11 | 14.8 | 19.1 | 0.00 | 0.00 | 0.00 | 63 | 813.0 |
| 20260503172122 | 32 | 16 | 13.0 | 18.2 | 0.00 | 0.00 | 0.00 | 63 | 812.9 |
| 20260503172012 | 32 | 16 | 13.0 | 17.4 | 0.00 | 0.00 | 0.00 | 63 | 812.9 |
| 20260503171902 | 32 | 17 | 14.8 | 17.4 | 0.00 | 0.00 | 0.00 | 63 | 812.9 |
| 20260503171642 | 32 | 16 | 13.9 | 17.4 | 0.00 | 0.00 | 0.00 | 63 | 813.0 |
| 20260503171422 | 32 | 17 | 12.2 | 16.5 | 0.00 | 0.00 | 0.00 | 64 | 813.0 |
| 20260503171312 | 32 | 14 | 14.8 | 17.4 | 0.00 | 0.00 | 0.00 | 64 | 812.9 |
| 20260503171202 | 32 | 14 | 14.8 | 17.4 | 0.00 | 0.00 | 0.00 | 64 | 812.9 |
| 20260503171052 | 32 | 12 | 12.2 | 17.4 | 0.00 | 0.00 | 0.00 | 64 | 813.0 |
| 20260503170942 | 32 | 13 | 14.8 | 18.2 | 0.00 | 0.00 | 0.00 | 64 | 813.0 |
| 20260503170832 | 32 | 15 | 14.8 | 17.4 | 0.00 | 0.00 | 0.00 | 64 | 813.0 |
| 20260503170722 | 32 | 16 | 13.0 | 16.5 | 0.00 | 0.00 | 0.00 | 64 | 813.0 |
| 20260503170612 | 32 | 13 | 13.0 | 15.6 | 0.00 | 0.00 | 0.00 | 64 | 813.0 |
| 20260503170501 | 32 | 10 | 14.8 | 17.4 | 0.00 | 0.00 | 0.00 | 64 | 813.0 |
| 20260503170352 | 32 | 10 | 13.9 | 16.5 | 0.00 | 0.00 | 0.00 | 64 | 813.0 |
| 20260503170242 | 32 | 8 | 13.9 | 17.4 | 0.00 | 0.00 | 0.00 | 64 | 813.0 |
| 20260503170132 | 32 | 6 | 13.0 | 15.6 | 0.00 | 0.00 | 0.00 | 64 | 813.0 |
| 20260503160201 | 33 | 31 | 10.4 | 15.6 | 0.00 | 0.00 | 0.00 | 58 | 812.9 |
| 20260503150932 | 34 | 14 | 15.6 | 26.9 | 0.00 | 0.00 | 0.00 | 52 | 812.9 |
| 20260503150822 | 34 | 15 | 16.5 | 24.3 | 0.00 | 0.00 | 0.00 | 51 | 812.6 |
| 20260503150602 | 34 | 57 | 18.2 | 22.6 | 0.00 | 0.00 | 0.00 | 49 | 812.9 |
| 20260503150451 | 34 | 46 | 22.6 | 28.7 | 0.00 | 0.00 | 0.00 | 52 | 812.6 |
| 20260503150341 | 34 | 20 | 13.0 | 23.5 | 0.00 | 0.00 | 0.00 | 52 | 812.7 |
| 20260503150121 | 34 | 35 | 20.0 | 25.2 | 0.00 | 0.00 | 0.00 | 50 | 812.7 |
| 20260503140301 | 33 | 38 | 18.2 | 22.6 | 0.00 | 0.00 | 0.00 | 48 | 813.3 |
| 20260503140151 | 33 | 41 | 18.2 | 23.5 | 0.00 | 0.00 | 0.00 | 48 | 813.1 |
| 20260503131252 | 32 | 32 | 7.0 | 12.2 | 0.00 | 0.00 | 0.00 | 59 | 813.8 |
| 20260503131141 | 32 | 358 | 6.1 | 8.7 | 0.00 | 0.00 | 0.00 | 58 | 813.8 |
| 20260503131031 | 32 | 350 | 6.1 | 8.7 | 0.00 | 0.00 | 0.00 | 57 | 813.8 |
| 20260503130921 | 32 | 347 | 8.7 | 11.3 | 0.00 | 0.00 | 0.00 | 62 | 813.8 |
| 20260503130812 | 32 | 12 | 7.8 | 12.2 | 0.00 | 0.00 | 0.00 | 58 | 813.8 |
| 20260503130701 | 32 | 28 | 9.6 | 15.6 | 0.00 | 0.00 | 0.00 | 58 | 813.8 |
| 20260503130551 | 32 | 21 | 9.6 | 16.5 | 0.00 | 0.00 | 0.00 | 58 | 813.8 |
| 20260503130441 | 32 | 18 | 11.3 | 16.5 | 0.00 | 0.00 | 0.00 | 65 | 813.8 |
| 20260503130331 | 32 | 3 | 9.6 | 14.8 | 0.00 | 0.00 | 0.00 | 64 | 813.8 |
| 20260503130221 | 32 | 5 | 9.6 | 12.2 | 0.00 | 0.00 | 0.00 | 60 | 813.8 |
| 20260503120141 | 32 | 51 | 11.3 | 13.0 | 0.00 | 0.00 | 0.00 | 60 | 813.9 |
| 20260503110651 | 30 | 22 | 8.7 | 12.2 | 0.00 | 0.00 | 0.00 | 65 | 814.2 |
| 20260503110431 | 31 | 34 | 13.0 | 17.4 | 0.00 | 0.00 | 0.00 | 67 | 814.2 |
| 20260503110321 | 31 | 38 | 8.7 | 11.3 | 0.00 | 0.00 | 0.00 | 67 | 814.2 |
| 20260503110211 | 31 | 16 | 11.3 | 14.8 | 0.00 | 0.00 | 0.00 | 70 | 814.2 |
| 20260503100241 | 29 | 45 | 14.8 | 20.9 | 0.00 | 0.00 | 0.00 | 67 | 814.2 |
| 20260503100131 | 29 | 42 | 7.8 | 18.2 | 0.00 | 0.00 | 0.00 | 66 | 814.3 |
| 20260503090421 | 28 | 27 | 7.0 | 11.3 | 0.00 | 0.00 | 0.00 | 70 | 814.2 |
| 20260503090201 | 28 | 60 | 7.0 | 12.2 | 0.00 | 0.00 | 0.00 | 70 | 814.2 |
| 20260503081631 | 26 | 38 | 11.3 | 14.8 | 0.00 | 0.00 | 0.00 | 71 | 813.8 |
| 20260503081521 | 26 | 46 | 14.8 | 18.2 | 0.00 | 0.00 | 0.00 | 74 | 813.8 |
| 20260503081411 | 26 | 23 | 9.6 | 15.6 | 0.00 | 0.00 | 0.00 | 76 | 813.8 |
| 20260503081301 | 26 | 35 | 9.6 | 15.6 | 0.00 | 0.00 | 0.00 | 76 | 813.8 |
| 20260503081151 | 26 | 20 | 8.7 | 13.0 | 0.00 | 0.00 | 0.00 | 76 | 813.8 |
| 20260503080821 | 26 | 39 | 13.0 | 17.4 | 0.00 | 0.00 | 0.00 | 74 | 813.8 |
| 20260503080711 | 26 | 42 | 11.3 | 15.6 | 0.00 | 0.00 | 0.00 | 74 | 813.8 |
| 20260503080601 | 27 | 53 | 8.7 | 11.3 | 0.00 | 0.00 | 0.00 | 74 | 813.8 |
| 20260503080451 | 27 | 101 | 10.4 | 16.5 | 0.00 | 0.00 | 0.00 | 76 | 813.9 |
| 20260503080341 | 26 | 87 | 7.8 | 12.2 | 0.00 | 0.00 | 0.00 | 77 | 813.8 |
| 20260503080231 | 26 | 79 | 7.8 | 11.3 | 0.00 | 0.00 | 0.00 | 76 | 813.8 |
| 20260503080120 | 26 | 31 | 7.0 | 12.2 | 0.00 | 0.00 | 0.00 | 75 | 813.9 |
| 20260503072731 | 25 | 46 | 8.7 | 13.0 | 0.00 | 0.00 | 0.00 | 76 | 813.7 |
| 20260503072621 | 25 | 55 | 10.4 | 13.9 | 0.00 | 0.00 | 0.00 | 76 | 813.7 |
| 20260503072512 | 25 | 67 | 10.4 | 13.0 | 0.00 | 0.00 | 0.00 | 76 | 813.7 |
| 20260503072401 | 25 | 65 | 9.6 | 11.3 | 0.00 | 0.00 | 0.00 | 76 | 813.7 |
| 20260503072251 | 24 | 50 | 10.4 | 13.0 | 0.00 | 0.00 | 0.00 | 76 | 813.5 |
| 20260503072141 | 24 | 69 | 9.6 | 12.2 | 0.00 | 0.00 | 0.00 | 76 | 813.5 |
| 20260503072031 | 24 | 67 | 11.3 | 15.6 | 0.00 | 0.00 | 0.00 | 75 | 813.5 |
| 20260503071921 | 24 | 62 | 13.0 | 16.5 | 0.00 | 0.00 | 0.00 | 76 | 813.5 |
| 20260503071700 | 24 | 94 | 9.6 | 13.9 | 0.00 | 0.00 | 0.00 | 76 | 813.7 |
| 20260503071551 | 24 | 83 | 10.4 | 15.6 | 0.00 | 0.00 | 0.00 | 77 | 813.5 |
| 20260503071440 | 24 | 75 | 10.4 | 13.9 | 0.00 | 0.00 | 0.00 | 77 | 813.5 |
| 20260503071331 | 25 | 90 | 9.6 | 14.8 | 0.00 | 0.00 | 0.00 | 78 | 813.5 |
| 20260503071221 | 24 | 91 | 11.3 | 14.8 | 0.00 | 0.00 | 0.00 | 79 | 813.7 |
| 20260503071111 | 24 | 83 | 13.0 | 18.2 | 0.00 | 0.00 | 0.00 | 80 | 813.4 |
| 20260503071001 | 24 | 58 | 12.2 | 16.5 | 0.00 | 0.00 | 0.00 | 79 | 813.4 |
| 20260503070741 | 24 | 55 | 9.6 | 12.2 | 0.00 | 0.00 | 0.00 | 79 | 813.5 |
| 20260503070631 | 24 | 59 | 9.6 | 11.3 | 0.00 | 0.00 | 0.00 | 80 | 813.5 |
| 20260503070411 | 24 | 52 | 13.0 | 19.1 | 0.00 | 0.00 | 0.00 | 80 | 813.4 |
| 20260503070300 | 24 | 67 | 10.4 | 14.8 | 0.00 | 0.00 | 0.00 | 79 | 813.4 |
| 20260503060331 | 22 | 70 | 14.8 | 18.2 | 0.00 | 0.00 | 0.00 | 76 | 813.0 |
| 20260503060111 | 22 | 65 | 18.2 | 21.7 | 0.00 | 0.00 | 0.00 | 76 | 812.9 |
| 20260503055040 | 22 | 47 | 21.7 | 27.8 | 0.00 | 0.00 | 0.00 | 76 | 812.6 |
| 20260503054820 | 22 | 60 | 19.1 | 24.3 | 0.00 | 0.00 | 0.00 | 76 | 812.9 |
| 20260503054711 | 22 | 59 | 18.2 | 23.5 | 0.00 | 0.00 | 0.00 | 75 | 812.6 |
| 20260503054601 | 22 | 55 | 20.0 | 25.2 | 0.00 | 0.00 | 0.00 | 76 | 812.6 |
| 20260503054450 | 22 | 79 | 13.0 | 16.5 | 0.00 | 0.00 | 0.00 | 75 | 812.9 |
| 20260503054340 | 22 | 82 | 16.5 | 23.5 | 0.00 | 0.00 | 0.00 | 77 | 812.7 |
| 20260503054230 | 22 | 78 | 14.8 | 20.9 | 0.00 | 0.00 | 0.00 | 77 | 812.9 |
| 20260503054121 | 22 | 79 | 15.6 | 23.5 | 0.00 | 0.00 | 0.00 | 77 | 813.0 |
| 20260503053750 | 22 | 99 | 13.0 | 18.2 | 0.00 | 0.00 | 0.00 | 78 | 813.0 |
| 20260503053530 | 22 | 80 | 13.0 | 17.4 | 0.00 | 0.00 | 0.00 | 78 | 812.9 |
| 20260503053311 | 22 | 105 | 15.6 | 22.6 | 0.00 | 0.00 | 0.00 | 78 | 812.9 |
| 20260503053201 | 22 | 99 | 18.2 | 25.2 | 0.00 | 0.00 | 0.00 | 78 | 812.7 |
| 20260503053050 | 22 | 87 | 19.1 | 24.3 | 0.00 | 0.00 | 0.00 | 77 | 812.7 |
| 20260503052941 | 22 | 92 | 20.0 | 26.1 | 0.00 | 0.00 | 0.00 | 77 | 812.7 |
| 20260503052720 | 22 | 83 | 17.4 | 21.7 | 0.00 | 0.00 | 0.00 | 80 | 812.7 |
| 20260503052611 | 22 | 83 | 16.5 | 21.7 | 0.00 | 0.00 | 0.00 | 80 | 812.7 |
| 20260503052351 | 22 | 84 | 19.1 | 24.3 | 0.00 | 0.00 | 0.00 | 78 | 812.6 |
| 20260503052240 | 22 | 82 | 19.1 | 23.5 | 0.00 | 0.00 | 0.00 | 79 | 812.6 |
| 20260503052020 | 22 | 93 | 21.7 | 25.2 | 0.00 | 0.00 | 0.00 | 80 | 812.6 |
| 20260503051911 | 22 | 84 | 18.2 | 27.8 | 0.00 | 0.00 | 0.00 | 80 | 812.7 |
| 20260503051801 | 22 | 91 | 20.0 | 26.1 | 0.00 | 0.00 | 0.00 | 80 | 812.6 |
| 20260503051541 | 22 | 88 | 20.0 | 29.5 | 0.00 | 0.00 | 0.00 | 81 | 812.6 |
| 20260503051430 | 22 | 89 | 20.0 | 28.7 | 0.00 | 0.00 | 0.00 | 79 | 812.5 |
| 20260503051321 | 22 | 80 | 20.9 | 25.2 | 0.00 | 0.00 | 0.00 | 79 | 812.5 |
| 20260503051211 | 22 | 92 | 19.1 | 25.2 | 0.00 | 0.00 | 0.00 | 81 | 812.6 |
| 20260503050951 | 22 | 87 | 20.0 | 26.1 | 0.00 | 0.00 | 0.00 | 81 | 812.5 |
| 20260503050841 | 22 | 83 | 20.9 | 27.8 | 0.00 | 0.00 | 0.00 | 80 | 812.3 |
| 20260503050730 | 22 | 81 | 20.0 | 23.5 | 0.00 | 0.00 | 0.00 | 82 | 812.5 |
| 20260503050620 | 22 | 87 | 20.0 | 26.9 | 0.00 | 0.00 | 0.00 | 82 | 812.6 |
| 20260503050510 | 22 | 88 | 20.0 | 24.3 | 0.00 | 0.00 | 0.00 | 82 | 812.6 |
| 20260503050401 | 22 | 84 | 19.1 | 26.9 | 0.00 | 0.00 | 0.00 | 82 | 812.5 |
| 20260503050250 | 22 | 83 | 18.2 | 22.6 | 0.00 | 0.00 | 0.00 | 81 | 812.6 |
| 20260503050141 | 22 | 90 | 18.2 | 23.5 | 0.00 | 0.00 | 0.00 | 81 | 812.6 |
| 20260503050031 | 22 | 96 | 18.2 | 23.5 | 0.00 | 0.00 | 0.00 | 82 | 812.6 |
| 20260503045811 | 22 | 88 | 19.1 | 25.2 | 0.00 | 0.00 | 0.00 | 82 | 812.5 |
| 20260503045700 | 22 | 94 | 19.1 | 23.5 | 0.00 | 0.00 | 0.00 | 81 | 812.5 |
| 20260503045440 | 22 | 88 | 19.1 | 26.9 | 0.00 | 0.00 | 0.00 | 83 | 812.6 |
| 20260503045331 | 22 | 90 | 19.1 | 25.2 | 0.00 | 0.00 | 0.00 | 84 | 812.5 |
| 20260503045220 | 22 | 87 | 19.1 | 24.3 | 0.00 | 0.00 | 0.00 | 83 | 812.5 |
| 20260503045001 | 21 | 93 | 17.4 | 23.5 | 0.00 | 0.00 | 0.00 | 83 | 812.5 |
| 20260503044741 | 21 | 95 | 19.1 | 26.9 | 0.00 | 0.00 | 0.00 | 82 | 812.3 |
| 20260503044630 | 21 | 87 | 18.2 | 23.5 | 0.00 | 0.00 | 0.00 | 83 | 812.3 |
| 20260503044520 | 21 | 88 | 20.0 | 26.9 | 0.00 | 0.00 | 0.00 | 83 | 812.3 |
| 20260503044150 | 21 | 86 | 18.2 | 23.5 | 0.00 | 0.00 | 0.00 | 83 | 812.6 |
| 20260503044040 | 21 | 87 | 19.1 | 25.2 | 0.00 | 0.00 | 0.00 | 83 | 812.3 |
| 20260503043930 | 21 | 86 | 19.1 | 24.3 | 0.00 | 0.00 | 0.00 | 86 | 812.3 |
| 20260503043821 | 21 | 93 | 19.1 | 23.5 | 0.00 | 0.00 | 0.00 | 83 | 812.5 |
| 20260503043711 | 21 | 90 | 19.1 | 23.5 | 0.00 | 0.00 | 0.00 | 84 | 812.2 |
| 20260503043601 | 21 | 97 | 18.2 | 24.3 | 0.00 | 0.00 | 0.00 | 86 | 812.3 |
| 20260503043450 | 21 | 84 | 19.1 | 22.6 | 0.00 | 0.00 | 0.00 | 86 | 812.2 |
| 20260503043340 | 21 | 96 | 20.0 | 27.8 | 0.00 | 0.00 | 0.00 | 85 | 812.2 |
| 20260503043230 | 21 | 89 | 20.0 | 25.2 | 0.00 | 0.00 | 0.00 | 85 | 812.2 |
| 20260503043010 | 21 | 89 | 19.1 | 25.2 | 0.00 | 0.00 | 0.00 | 86 | 812.2 |
| 20260503042901 | 21 | 89 | 20.0 | 25.2 | 0.00 | 0.00 | 0.00 | 87 | 812.2 |
| 20260503042750 | 21 | 88 | 20.9 | 24.3 | 0.00 | 0.00 | 0.00 | 88 | 812.2 |
| 20260503042530 | 21 | 87 | 20.0 | 26.1 | 0.00 | 0.00 | 0.00 | 86 | 812.2 |
| 20260503042421 | 21 | 83 | 18.2 | 21.7 | 0.00 | 0.00 | 0.00 | 85 | 812.2 |
| 20260503042310 | 21 | 88 | 20.9 | 25.2 | 0.00 | 0.00 | 0.00 | 86 | 812.2 |
| 20260503042200 | 21 | 85 | 20.9 | 27.8 | 0.00 | 0.00 | 0.00 | 86 | 812.2 |
| 20260503041941 | 21 | 86 | 20.9 | 26.1 | 0.00 | 0.00 | 0.00 | 86 | 812.2 |
| 20260503041720 | 21 | 85 | 20.9 | 26.1 | 0.00 | 0.00 | 0.00 | 87 | 812.2 |
| 20260503041500 | 21 | 91 | 18.2 | 26.9 | 0.00 | 0.00 | 0.00 | 86 | 812.2 |
| 20260503041240 | 21 | 83 | 18.2 | 28.7 | 0.00 | 0.00 | 0.00 | 87 | 812.2 |
| 20260503041130 | 21 | 81 | 19.1 | 22.6 | 0.00 | 0.00 | 0.00 | 87 | 812.2 |
| 20260503041020 | 21 | 90 | 20.0 | 24.3 | 0.00 | 0.00 | 0.00 | 88 | 812.2 |
| 20260503040910 | 21 | 92 | 20.9 | 27.8 | 0.00 | 0.00 | 0.00 | 88 | 812.1 |
| 20260503040800 | 21 | 87 | 19.1 | 22.6 | 0.00 | 0.00 | 0.00 | 89 | 812.2 |
| 20260503040650 | 21 | 91 | 19.1 | 26.9 | 0.00 | 0.00 | 0.00 | 90 | 812.1 |
| 20260503040540 | 21 | 91 | 20.9 | 27.8 | 0.00 | 0.00 | 0.00 | 90 | 812.2 |
| 20260503040431 | 21 | 102 | 20.0 | 28.7 | 0.00 | 0.00 | 0.00 | 90 | 812.2 |
| 20260503040210 | 21 | 81 | 18.2 | 24.3 | 0.00 | 0.00 | 0.00 | 92 | 812.2 |
| 20260503040100 | 21 | 90 | 19.1 | 26.9 | 0.00 | 0.00 | 0.00 | 92 | 812.1 |
| 20260503035950 | 21 | 99 | 18.2 | 26.1 | 0.00 | 0.00 | 0.00 | 91 | 812.1 |
| 20260503035841 | 21 | 97 | 19.1 | 30.4 | 0.00 | 0.00 | 0.00 | 91 | 812.1 |
| 20260503035730 | 21 | 93 | 19.1 | 27.8 | 0.00 | 0.00 | 0.00 | 92 | 812.2 |
| 20260503035620 | 21 | 94 | 19.1 | 26.9 | 0.00 | 0.00 | 0.00 | 92 | 812.1 |
| 20260503035510 | 21 | 86 | 19.1 | 25.2 | 0.00 | 0.00 | 0.00 | 92 | 811.8 |
| 20260503035401 | 21 | 97 | 20.9 | 27.8 | 0.00 | 0.00 | 0.00 | 92 | 812.1 |
| 20260503035250 | 21 | 81 | 20.0 | 25.2 | 0.00 | 0.00 | 0.00 | 92 | 811.8 |
| 20260503035140 | 21 | 87 | 18.2 | 26.1 | 0.00 | 0.00 | 0.00 | 93 | 812.1 |
| 20260503035031 | 21 | 84 | 20.9 | 28.7 | 0.00 | 0.00 | 0.00 | 94 | 812.1 |
| 20260503034920 | 21 | 87 | 19.1 | 26.9 | 0.00 | 0.00 | 0.00 | 93 | 812.1 |
| 20260503034810 | 21 | 88 | 18.2 | 27.8 | 0.00 | 0.00 | 0.00 | 93 | 812.1 |
| 20260503034700 | 21 | 92 | 17.4 | 25.2 | 0.00 | 0.00 | 0.00 | 93 | 812.1 |
| 20260503034550 | 21 | 79 | 18.2 | 23.5 | 0.00 | 0.00 | 0.00 | 93 | 812.1 |
| 20260503034441 | 21 | 95 | 17.4 | 22.6 | 0.00 | 0.00 | 0.00 | 94 | 812.1 |
| 20260503034331 | 21 | 108 | 18.2 | 27.8 | 0.00 | 0.00 | 0.00 | 94 | 812.1 |
| 20260503034110 | 20 | 83 | 18.2 | 27.8 | 0.00 | 0.00 | 0.00 | 93 | 812.1 |
| 20260503034000 | 21 | 107 | 15.6 | 24.3 | 0.00 | 0.00 | 0.00 | 93 | 812.1 |
| 20260503033740 | 21 | 88 | 18.2 | 25.2 | 0.00 | 0.00 | 0.00 | 94 | 811.9 |
| 20260503033630 | 20 | 96 | 18.2 | 26.9 | 0.00 | 0.00 | 0.00 | 94 | 812.1 |
| 20260503033520 | 20 | 88 | 20.0 | 24.3 | 0.00 | 0.00 | 0.00 | 94 | 811.8 |
| 20260503033410 | 20 | 95 | 20.0 | 25.2 | 0.00 | 0.00 | 0.00 | 94 | 812.1 |
| 20260503033300 | 20 | 82 | 20.0 | 23.5 | 0.00 | 0.00 | 0.00 | 95 | 811.8 |
| 20260503032931 | 20 | 103 | 21.7 | 27.8 | 0.00 | 0.00 | 0.00 | 95 | 812.1 |
| 20260503032820 | 20 | 72 | 19.1 | 22.6 | 0.00 | 0.00 | 0.00 | 95 | 811.8 |
| 20260503032710 | 20 | 85 | 18.2 | 21.7 | 0.00 | 0.00 | 0.00 | 94 | 811.9 |
| 20260503032600 | 20 | 92 | 20.0 | 26.9 | 0.00 | 0.00 | 0.00 | 94 | 811.8 |
| 20260503032450 | 20 | 83 | 19.1 | 26.1 | 0.00 | 0.00 | 0.00 | 94 | 811.8 |
| 20260503032340 | 20 | 92 | 18.2 | 25.2 | 0.00 | 0.00 | 0.00 | 94 | 811.9 |
| 20260503032230 | 20 | 106 | 16.5 | 26.1 | 0.00 | 0.00 | 0.00 | 94 | 811.9 |
| 20260503032120 | 20 | 79 | 17.4 | 20.9 | 0.00 | 0.00 | 0.00 | 93 | 811.8 |
| 20260503032010 | 20 | 80 | 18.2 | 22.6 | 0.00 | 0.00 | 0.00 | 93 | 811.8 |
| 20260503031901 | 20 | 93 | 15.6 | 23.5 | 0.00 | 0.00 | 0.00 | 94 | 811.8 |
| 20260503031750 | 20 | 83 | 19.1 | 26.9 | 0.00 | 0.00 | 0.00 | 94 | 811.8 |
| 20260503031530 | 20 | 84 | 17.4 | 21.7 | 0.00 | 0.00 | 0.00 | 94 | 812.1 |
| 20260503031420 | 20 | 86 | 17.4 | 24.3 | 0.00 | 0.00 | 0.00 | 93 | 811.9 |
| 20260503031311 | 20 | 93 | 18.2 | 26.9 | 0.00 | 0.00 | 0.00 | 93 | 811.9 |
| 20260503031200 | 20 | 94 | 19.1 | 27.8 | 0.00 | 0.00 | 0.00 | 93 | 812.1 |
| 20260503030940 | 20 | 88 | 19.1 | 23.5 | 0.00 | 0.00 | 0.00 | 92 | 811.8 |
| 20260503030830 | 20 | 91 | 20.0 | 25.2 | 0.00 | 0.00 | 0.00 | 94 | 811.8 |
| 20260503030720 | 20 | 90 | 20.0 | 26.1 | 0.00 | 0.00 | 0.00 | 95 | 811.9 |
| 20260503030610 | 20 | 91 | 20.0 | 29.5 | 0.00 | 0.00 | 0.00 | 94 | 811.8 |
| 20260503030500 | 20 | 89 | 19.1 | 28.7 | 0.00 | 0.00 | 0.00 | 94 | 811.8 |
| 20260503030351 | 20 | 95 | 20.9 | 26.9 | 0.00 | 0.00 | 0.00 | 94 | 811.8 |
| 20260503030240 | 20 | 90 | 18.2 | 25.2 | 0.00 | 0.00 | 0.00 | 94 | 811.8 |
| 20260503030130 | 20 | 89 | 20.0 | 24.3 | 0.00 | 0.00 | 0.00 | 95 | 811.8 |
| 20260503025910 | 20 | 90 | 18.2 | 23.5 | 0.00 | 0.00 | 0.00 | 95 | 811.8 |
| 20260503025801 | 20 | 97 | 18.2 | 26.9 | 0.00 | 0.00 | 0.00 | 95 | 811.9 |
| 20260503025540 | 20 | 100 | 18.2 | 28.7 | 0.00 | 0.00 | 0.00 | 95 | 811.8 |
| 20260503025430 | 20 | 90 | 20.0 | 28.7 | 0.00 | 0.00 | 0.00 | 94 | 811.8 |
| 20260503025320 | 20 | 88 | 18.2 | 28.7 | 0.00 | 0.00 | 0.00 | 95 | 811.9 |
| 20260503025210 | 20 | 91 | 19.1 | 24.3 | 0.00 | 0.00 | 0.00 | 96 | 811.8 |
| 20260503025100 | 20 | 94 | 20.0 | 26.9 | 0.00 | 0.00 | 0.00 | 95 | 811.8 |
| 20260503024950 | 20 | 95 | 20.0 | 26.1 | 0.00 | 0.00 | 0.00 | 94 | 811.8 |
| 20260503024840 | 20 | 92 | 20.0 | 29.5 | 0.00 | 0.00 | 0.00 | 95 | 811.8 |
| 20260503024730 | 20 | 85 | 20.0 | 26.1 | 0.00 | 0.00 | 0.00 | 94 | 811.7 |
| 20260503024620 | 20 | 90 | 18.2 | 23.5 | 0.00 | 0.00 | 0.00 | 94 | 811.7 |
| 20260503024510 | 20 | 88 | 20.9 | 27.8 | 0.00 | 0.00 | 0.00 | 95 | 811.7 |
| 20260503024250 | 20 | 86 | 20.9 | 26.1 | 0.00 | 0.00 | 0.00 | 95 | 811.7 |
| 20260503024030 | 20 | 86 | 17.4 | 26.9 | 0.00 | 0.00 | 0.00 | 97 | 811.8 |
| 20260503023811 | 20 | 79 | 20.0 | 24.3 | 0.00 | 0.00 | 0.00 | 96 | 811.5 |
| 20260503023701 | 20 | 94 | 19.1 | 24.3 | 0.00 | 0.00 | 0.00 | 96 | 811.8 |
| 20260503023550 | 20 | 93 | 17.4 | 23.5 | 0.00 | 0.00 | 0.00 | 95 | 811.8 |
| 20260503023440 | 20 | 91 | 17.4 | 25.2 | 0.00 | 0.00 | 0.00 | 95 | 811.8 |
| 20260503023330 | 20 | 98 | 20.9 | 27.8 | 0.00 | 0.00 | 0.00 | 95 | 811.8 |
| 20260503023220 | 20 | 92 | 19.1 | 26.1 | 0.00 | 0.00 | 0.00 | 95 | 811.8 |
| 20260503023110 | 20 | 84 | 19.1 | 26.1 | 0.00 | 0.00 | 0.00 | 94 | 811.8 |
| 20260503023001 | 20 | 92 | 18.2 | 25.2 | 0.00 | 0.00 | 0.00 | 94 | 811.8 |
| 20260503022742 | 20 | 91 | 20.9 | 28.7 | 0.00 | 0.00 | 0.00 | 94 | 811.8 |
| 20260503022520 | 20 | 92 | 19.1 | 24.3 | 0.00 | 0.00 | 0.00 | 94 | 811.8 |
| 20260503022410 | 20 | 91 | 20.0 | 26.9 | 0.00 | 0.00 | 0.00 | 94 | 811.8 |
| 20260503022300 | 20 | 87 | 18.2 | 22.6 | 0.00 | 0.00 | 0.00 | 94 | 811.8 |
| 20260503022150 | 20 | 99 | 20.0 | 28.7 | 0.00 | 0.00 | 0.00 | 93 | 811.8 |
| 20260503021931 | 20 | 93 | 18.2 | 26.1 | 0.00 | 0.00 | 0.00 | 93 | 811.8 |
| 20260503021711 | 20 | 85 | 20.9 | 27.8 | 0.00 | 0.00 | 0.00 | 93 | 811.8 |
| 20260503021600 | 20 | 97 | 21.7 | 30.4 | 0.00 | 0.00 | 0.00 | 93 | 811.8 |
| 20260503021450 | 20 | 94 | 19.1 | 25.2 | 0.00 | 0.00 | 0.00 | 93 | 811.8 |
| 20260503021340 | 20 | 87 | 20.9 | 28.7 | 0.00 | 0.00 | 0.00 | 93 | 811.8 |
| 20260503021230 | 20 | 95 | 20.9 | 28.7 | 0.00 | 0.00 | 0.00 | 92 | 811.8 |
| 20260503021121 | 20 | 103 | 21.7 | 31.3 | 0.00 | 0.00 | 0.00 | 92 | 811.8 |
| 20260503021011 | 20 | 91 | 19.1 | 24.3 | 0.00 | 0.00 | 0.00 | 93 | 811.8 |
| 20260503020901 | 20 | 83 | 20.9 | 26.1 | 0.00 | 0.00 | 0.00 | 92 | 811.8 |
| 20260503020750 | 20 | 89 | 21.7 | 26.9 | 0.00 | 0.00 | 0.00 | 92 | 811.8 |
| 20260503020530 | 20 | 89 | 22.6 | 30.4 | 0.00 | 0.00 | 0.00 | 92 | 811.7 |
| 20260503020420 | 20 | 92 | 22.6 | 26.9 | 0.00 | 0.00 | 0.00 | 92 | 811.7 |
| 20260503020310 | 20 | 92 | 23.5 | 27.8 | 0.00 | 0.00 | 0.00 | 92 | 811.8 |
| 20260503020201 | 20 | 98 | 23.5 | 27.8 | 0.00 | 0.00 | 0.00 | 93 | 811.8 |
| 20260503020050 | 20 | 91 | 23.5 | 30.4 | 0.00 | 0.00 | 0.00 | 93 | 811.8 |
| 20260503015942 | 20 | 98 | 22.6 | 30.4 | 0.00 | 0.00 | 0.00 | 93 | 811.8 |
| 20260503015721 | 20 | 90 | 23.5 | 26.9 | 0.00 | 0.00 | 0.00 | 93 | 811.8 |
| 20260503015500 | 20 | 93 | 23.5 | 29.5 | 0.00 | 0.00 | 0.00 | 93 | 811.8 |
| 20260503015350 | 20 | 92 | 23.5 | 28.7 | 0.00 | 0.00 | 0.00 | 93 | 811.7 |
| 20260503015240 | 20 | 90 | 20.9 | 33.0 | 0.00 | 0.00 | 0.00 | 93 | 811.7 |
| 20260503015131 | 20 | 95 | 22.6 | 30.4 | 0.00 | 0.00 | 0.00 | 93 | 811.8 |
| 20260503015020 | 20 | 95 | 21.7 | 31.3 | 0.00 | 0.00 | 0.00 | 93 | 811.9 |
| 20260503014910 | 20 | 97 | 22.6 | 29.5 | 0.00 | 0.00 | 0.00 | 93 | 812.1 |
| 20260503014800 | 20 | 94 | 22.6 | 31.3 | 0.00 | 0.00 | 0.00 | 93 | 811.8 |
| 20260503014651 | 20 | 94 | 23.5 | 29.5 | 0.00 | 0.00 | 0.00 | 94 | 811.8 |
| 20260503014540 | 20 | 95 | 21.7 | 27.8 | 0.00 | 0.00 | 0.00 | 94 | 811.8 |
| 20260503014321 | 20 | 110 | 20.9 | 32.2 | 0.00 | 0.00 | 0.00 | 93 | 811.8 |
| 20260503014100 | 20 | 91 | 21.7 | 26.9 | 0.00 | 0.00 | 0.00 | 94 | 811.8 |
| 20260503013951 | 20 | 92 | 22.6 | 26.1 | 0.00 | 0.00 | 0.00 | 96 | 811.8 |
| 20260503013840 | 20 | 94 | 24.3 | 30.4 | 0.00 | 0.00 | 0.00 | 96 | 811.9 |
| 20260503013620 | 20 | 88 | 23.5 | 29.5 | 0.00 | 0.00 | 0.00 | 96 | 811.7 |
| 20260503013511 | 20 | 84 | 22.6 | 32.2 | 0.00 | 0.00 | 0.00 | 96 | 811.7 |
| 20260503013406 | 20 | 92 | 20.9 | 32.2 | 0.00 | 0.00 | 0.00 | 96 | 811.8 |
| 20260503013250 | 20 | 90 | 23.5 | 30.4 | 0.00 | 0.00 | 0.00 | 96 | 811.8 |
| 20260503013144 | 20 | 85 | 21.7 | 30.4 | 0.00 | 0.00 | 0.00 | 96 | 811.8 |
| 20260503013030 | 20 | 87 | 22.6 | 26.9 | 0.00 | 0.00 | 0.00 | 96 | 811.8 |
| 20260503012920 | 20 | 88 | 21.7 | 28.7 | 0.00 | 0.00 | 0.00 | 97 | 811.8 |
| 20260503012811 | 20 | 86 | 22.6 | 29.5 | 0.00 | 0.00 | 0.00 | 97 | 811.8 |
| 20260503012700 | 20 | 92 | 21.7 | 30.4 | 0.00 | 0.00 | 0.00 | 96 | 811.8 |
| 20260503012550 | 20 | 86 | 21.7 | 27.8 | 0.00 | 0.00 | 0.00 | 96 | 811.8 |
| 20260503012330 | 20 | 89 | 21.7 | 29.5 | 0.00 | 0.00 | 0.00 | 97 | 811.8 |
| 20260503012221 | 20 | 95 | 19.1 | 26.1 | 0.00 | 0.00 | 0.00 | 96 | 811.9 |
| 20260503012110 | 20 | 85 | 18.2 | 24.3 | 0.00 | 0.00 | 0.00 | 96 | 811.8 |
| 20260503012000 | 20 | 98 | 16.5 | 29.5 | 0.00 | 0.00 | 0.00 | 96 | 811.9 |
| 20260503011851 | 20 | 91 | 20.0 | 26.9 | 0.00 | 0.00 | 0.00 | 97 | 811.9 |
| 20260503011740 | 20 | 103 | 17.4 | 26.1 | 0.00 | 0.00 | 0.00 | 97 | 811.8 |
| 20260503011630 | 20 | 79 | 20.9 | 27.8 | 0.00 | 0.00 | 0.00 | 97 | 811.8 |
| 20260503011520 | 20 | 79 | 18.2 | 24.3 | 0.00 | 0.00 | 0.00 | 97 | 811.8 |
| 20260503011300 | 20 | 70 | 19.1 | 22.6 | 0.00 | 0.00 | 0.00 | 97 | 811.8 |
| 20260503011150 | 20 | 88 | 18.2 | 24.3 | 0.00 | 0.00 | 0.00 | 96 | 811.7 |
| 20260503011040 | 20 | 90 | 19.1 | 28.7 | 0.00 | 0.00 | 0.00 | 96 | 812.1 |
| 20260503010930 | 20 | 85 | 18.2 | 28.7 | 0.00 | 0.00 | 0.00 | 96 | 811.9 |
| 20260503010823 | 20 | 87 | 18.2 | 26.9 | 0.00 | 0.00 | 0.00 | 96 | 812.1 |
| 20260503010710 | 20 | 93 | 18.2 | 28.7 | 0.00 | 0.00 | 0.00 | 96 | 812.1 |
| 20260503010600 | 21 | 82 | 18.2 | 23.5 | 0.00 | 0.00 | 0.00 | 97 | 811.8 |
| 20260503010230 | 20 | 87 | 20.0 | 21.7 | 0.00 | 0.00 | 0.00 | 97 | 811.8 |
| 20260503010010 | 20 | 93 | 20.0 | 27.8 | 0.00 | 0.00 | 0.00 | 96 | 812.1 |
| 20260503005900 | 20 | 92 | 20.0 | 26.9 | 0.00 | 0.00 | 0.00 | 96 | 811.8 |
| 20260503005750 | 20 | 93 | 22.6 | 28.7 | 0.00 | 0.00 | 0.00 | 96 | 811.8 |
| 20260503005640 | 20 | 95 | 21.7 | 32.2 | 0.00 | 0.00 | 0.00 | 96 | 811.7 |
| 20260503005310 | 20 | 88 | 22.6 | 28.7 | 0.00 | 0.00 | 0.00 | 97 | 811.8 |
| 20260503005200 | 21 | 93 | 23.5 | 32.2 | 0.00 | 0.00 | 0.00 | 97 | 811.8 |
| 20260503005050 | 21 | 93 | 22.6 | 30.4 | 0.00 | 0.00 | 0.00 | 97 | 811.8 |
| 20260503004940 | 21 | 88 | 24.3 | 32.2 | 0.00 | 0.00 | 0.00 | 97 | 811.8 |
| 20260503004720 | 21 | 90 | 22.6 | 32.2 | 0.00 | 0.00 | 0.00 | 98 | 811.8 |
| 20260503004500 | 21 | 85 | 24.3 | 29.5 | 0.00 | 0.00 | 0.00 | 98 | 811.8 |
| 20260503004350 | 21 | 89 | 24.3 | 29.5 | 0.00 | 0.00 | 0.00 | 98 | 811.8 |
| 20260503004240 | 21 | 88 | 25.2 | 31.3 | 0.00 | 0.00 | 0.00 | 98 | 811.5 |
| 20260503004130 | 21 | 84 | 25.2 | 30.4 | 0.00 | 0.00 | 0.00 | 98 | 811.8 |
| 20260503003910 | 21 | 83 | 26.1 | 29.5 | 0.00 | 0.00 | 0.00 | 98 | 811.4 |
| 20260503003800 | 21 | 91 | 25.2 | 33.9 | 0.00 | 0.00 | 0.00 | 98 | 811.8 |
| 20260503003541 | 21 | 87 | 23.5 | 34.8 | 0.00 | 0.00 | 0.00 | 98 | 811.7 |
| 20260503003430 | 21 | 87 | 24.3 | 28.7 | 0.00 | 0.00 | 0.00 | 98 | 811.7 |
| 20260503003320 | 21 | 87 | 23.5 | 26.9 | 0.00 | 0.00 | 0.00 | 99 | 811.8 |
| 20260503003100 | 21 | 90 | 25.2 | 29.5 | 0.00 | 0.00 | 0.00 | 99 | 811.8 |
| 20260503002950 | 21 | 86 | 24.3 | 30.4 | 0.00 | 0.00 | 0.00 | 99 | 811.8 |
| 20260503002840 | 21 | 85 | 21.7 | 25.2 | 0.00 | 0.00 | 0.00 | 98 | 811.8 |
| 20260503002730 | 21 | 90 | 24.3 | 28.7 | 0.00 | 0.00 | 0.00 | 98 | 811.8 |
| 20260503002620 | 21 | 86 | 21.7 | 27.8 | 0.00 | 0.00 | 0.00 | 98 | 811.8 |
| 20260503002510 | 21 | 99 | 22.6 | 30.4 | 0.00 | 0.00 | 0.00 | 98 | 811.8 |
| 20260503002400 | 21 | 95 | 22.6 | 32.2 | 0.00 | 0.00 | 0.00 | 98 | 811.8 |
| 20260503002141 | 21 | 84 | 20.9 | 25.2 | 0.00 | 0.00 | 0.00 | 99 | 811.8 |
| 20260503002030 | 21 | 86 | 22.6 | 28.7 | 0.00 | 0.00 | 0.00 | 98 | 811.9 |
| 20260503001920 | 21 | 97 | 20.0 | 24.3 | 0.00 | 0.00 | 0.00 | 98 | 812.2 |
| 20260503001811 | 21 | 97 | 20.9 | 29.5 | 0.00 | 0.00 | 0.00 | 98 | 811.8 |
| 20260503001700 | 21 | 97 | 20.9 | 26.1 | 0.00 | 0.00 | 0.00 | 98 | 811.9 |
| 20260503001550 | 21 | 96 | 21.7 | 29.5 | 0.00 | 0.00 | 0.00 | 98 | 812.1 |
| 20260503001440 | 21 | 90 | 20.9 | 26.1 | 0.00 | 0.00 | 0.00 | 99 | 812.1 |
| 20260503001220 | 21 | 99 | 20.9 | 26.9 | 0.00 | 0.00 | 0.00 | 99 | 812.1 |
| 20260503001110 | 21 | 105 | 20.0 | 28.7 | 0.00 | 0.00 | 0.00 | 99 | 812.2 |
| 20260503001000 | 21 | 98 | 19.1 | 29.5 | 0.00 | 0.00 | 0.00 | 99 | 812.1 |
| 20260503000850 | 21 | 95 | 21.7 | 25.2 | 0.00 | 0.00 | 0.00 | 99 | 812.2 |
| 20260503000740 | 21 | 96 | 23.5 | 27.8 | 0.00 | 0.00 | 0.00 | 99 | 812.2 |
| 20260503000632 | 21 | 91 | 20.9 | 28.7 | 0.00 | 0.00 | 0.00 | 99 | 811.9 |
| 20260503000520 | 21 | 95 | 24.3 | 30.4 | 0.00 | 0.00 | 0.00 | 99 | 811.9 |
| 20260503000301 | 21 | 92 | 23.5 | 29.5 | 0.00 | 0.00 | 0.00 | 99 | 812.1 |
| 20260503000151 | 21 | 105 | 24.3 | 37.4 | 0.00 | 0.00 | 0.00 | 99 | 811.8 |
| 20260503000041 | 21 | 91 | 25.2 | 33.0 | 0.00 | 0.00 | 0.00 | 10 | 811.8 |
| 20260502235820 | 21 | 90 | 23.5 | 29.5 | 0.00 | 0.00 | 0.00 | 10 | 811.8 |
| 20260502235710 | 21 | 92 | 24.3 | 32.2 | 0.00 | 0.00 | 0.00 | 10 | 811.8 |
| 20260502235600 | 21 | 95 | 23.5 | 33.0 | 0.00 | 0.00 | 0.00 | 10 | 811.8 |
| 20260502235230 | 21 | 90 | 24.3 | 30.4 | 0.00 | 0.00 | 0.00 | 10 | 812.1 |
| 20260502234901 | 21 | 89 | 22.6 | 30.4 | 0.00 | 0.00 | 0.00 | 10 | 811.8 |
| 20260502234640 | 21 | 109 | 20.0 | 29.5 | 0.00 | 0.00 | 0.00 | 10 | 812.2 |
| 20260502234531 | 21 | 98 | 23.5 | 33.9 | 0.00 | 0.00 | 0.00 | 10 | 811.7 |
| 20260502234420 | 21 | 97 | 22.6 | 33.9 | 0.00 | 0.00 | 0.00 | 10 | 812.1 |
| 20260502234310 | 21 | 86 | 23.5 | 28.7 | 0.00 | 0.00 | 0.00 | 10 | 811.9 |
| 20260502234200 | 21 | 85 | 26.1 | 32.2 | 0.00 | 0.00 | 0.00 | 10 | 811.7 |
| 20260502234050 | 21 | 92 | 26.1 | 33.0 | 0.00 | 0.00 | 0.00 | 10 | 811.8 |
| 20260502233940 | 21 | 88 | 26.1 | 31.3 | 0.00 | 0.00 | 0.00 | 10 | 811.8 |
| 20260502233830 | 21 | 91 | 23.5 | 29.5 | 0.00 | 0.00 | 0.00 | 10 | 812.1 |
| 20260502233720 | 21 | 88 | 21.7 | 25.2 | 0.00 | 0.00 | 0.00 | 10 | 811.9 |
| 20260502233610 | 21 | 94 | 22.6 | 33.0 | 0.00 | 0.00 | 0.00 | 10 | 811.8 |
| 20260502233500 | 21 | 85 | 17.4 | 22.6 | 0.00 | 0.00 | 0.00 | 10 | 811.8 |
| 20260502233350 | 21 | 80 | 18.2 | 25.2 | 0.00 | 0.00 | 0.00 | 10 | 811.8 |
| 20260502233240 | 21 | 93 | 16.5 | 25.2 | 0.00 | 0.00 | 0.00 | 10 | 811.8 |
| 20260502233130 | 21 | 79 | 18.2 | 27.8 | 0.00 | 0.00 | 0.00 | 10 | 811.8 |
| 20260502233020 | 21 | 75 | 19.1 | 23.5 | 0.00 | 0.00 | 0.00 | 10 | 811.8 |
| 20260502232910 | 21 | 74 | 20.0 | 24.3 | 0.00 | 0.00 | 0.00 | 10 | 811.8 |
| 20260502232800 | 21 | 78 | 16.5 | 25.2 | 0.00 | 0.00 | 0.00 | 10 | 811.8 |
| 20260502232650 | 21 | 75 | 18.2 | 22.6 | 0.00 | 0.00 | 0.00 | 10 | 811.9 |
| 20260502232540 | 21 | 70 | 20.0 | 24.3 | 0.00 | 0.00 | 0.00 | 10 | 812.2 |